When you browse on this site, cookies collect data to enhance your experience and personalize the content and advertising you see.
Visit our Privacy Policy to learn more. By continuing to use the site, you agree to this use of cookies and data.
  • In Hungary
  • List of Countries
  • For 7 days
  • Water Temperature
  • Weather Map
  • News
  • Weather Widgets
  • user-avatar
    Login

    Hourly Weather Grachevka

    Today, 14 October, Monday

    Time Temperature Precipitation Wind Pressure Humidity
    00:00 +14°C° 0 mm 1 mps 752 mmHg 54%
    01:00 +14°C° 0 mm 1 mps 752 mmHg 55%
    02:00 +14°C° 0 mm 1 mps 752 mmHg 55%
    03:00 +13°C° 0 mm 1 mps 752 mmHg 56%
    04:00 +13°C° 0 mm 1 mps 752 mmHg 56%
    05:00 +13°C° 0 mm 1 mps 752 mmHg 57%
    06:00 +13°C° 0 mm 1 mps 752 mmHg 57%
    07:00 +14°C° 0 mm 1 mps 752 mmHg 52%
    08:00 +16°C° 0 mm 1 mps 752 mmHg 48%
    09:00 +18°C° 0 mm 1 mps 752 mmHg 43%
    10:00 +20°C° 0 mm 1 mps 752 mmHg 39%
    11:00 +22°C° 0 mm 1 mps 752 mmHg 35%
    12:00 +23°C° 0 mm 1 mps 752 mmHg 31%
    13:00 +24°C° 0 mm 1 mps 751 mmHg 31%
    14:00 +24°C° 0 mm 1 mps 751 mmHg 30%
    15:00 +25°C° 0 mm 2 mps 751 mmHg 29%
    16:00 +23°C° 0 mm 2 mps 751 mmHg 32%
    17:00 +21°C° 0 mm 2 mps 751 mmHg 36%
    18:00 +19°C° 0 mm 2 mps 750 mmHg 40%
    19:00 +18°C° 0 mm 2 mps 751 mmHg 41%
    20:00 +18°C° 0 mm 2 mps 751 mmHg 43%
    21:00 +17°C° 0 mm 2 mps 751 mmHg 44%
    22:00 +16°C° 0 mm 2 mps 750 mmHg 46%
    23:00 +16°C° 0 mm 2 mps 750 mmHg 47%

    Tomorrow, 15 October, Tuesday

    Time Temperature Precipitation Wind Pressure Humidity
    00:00 +16°C° 0 mm 3 mps 750 mmHg 48%
    01:00 +15°C° 0 mm 2 mps 749 mmHg 49%
    02:00 +15°C° 0 mm 2 mps 749 mmHg 50%
    03:00 +15°C° 0 mm 2 mps 749 mmHg 50%
    04:00 +14°C° 0 mm 2 mps 749 mmHg 50%
    05:00 +14°C° 0 mm 2 mps 749 mmHg 49%
    06:00 +14°C° 0 mm 2 mps 748 mmHg 49%
    07:00 +15°C° 0 mm 2 mps 749 mmHg 45%
    08:00 +17°C° 0 mm 3 mps 749 mmHg 41%
    09:00 +18°C° 0 mm 3 mps 749 mmHg 37%
    10:00 +20°C° 0 mm 3 mps 749 mmHg 34%
    11:00 +22°C° 0 mm 3 mps 749 mmHg 30%
    12:00 +25°C° 0 mm 3 mps 749 mmHg 26%
    13:00 +26°C° 0 mm 3 mps 748 mmHg 25%
    14:00 +26°C° 0 mm 3 mps 748 mmHg 24%
    15:00 +26°C° 0 mm 2 mps 748 mmHg 24%
    16:00 +25°C° 0 mm 2 mps 748 mmHg 27%
    17:00 +23°C° 0 mm 2 mps 747 mmHg 30%
    18:00 +20°C° 0 mm 2 mps 747 mmHg 33%
    19:00 +19°C° 0 mm 2 mps 748 mmHg 35%
    20:00 +18°C° 0 mm 2 mps 748 mmHg 37%
    21:00 +19°C° 0 mm 1 mps 748 mmHg 40%
    22:00 +18°C° 0 mm 1 mps 748 mmHg 42%
    23:00 +18°C° 0 mm 1 mps 748 mmHg 44%

    Day after tomorrow, 16 October, Wednesday

    Time Temperature Precipitation Wind Pressure Humidity
    00:00 +16°C° 0 mm 1 mps 747 mmHg 46%
    01:00 +16°C° 0 mm 1 mps 747 mmHg 49%
    02:00 +15°C° 0 mm 1 mps 748 mmHg 51%
    03:00 +15°C° 0 mm 1 mps 748 mmHg 53%
    04:00 +15°C° 0 mm 1 mps 748 mmHg 57%
    05:00 +14°C° 0 mm 1 mps 748 mmHg 60%
    06:00 +14°C° 0 mm 1 mps 748 mmHg 63%
    07:00 +16°C° 0 mm 2 mps 748 mmHg 59%
    08:00 +17°C° 0 mm 2 mps 748 mmHg 55%
    09:00 +19°C° 0 mm 2 mps 748 mmHg 51%
    10:00 +20°C° 0 mm 3 mps 748 mmHg 45%
    11:00 +22°C° 0 mm 4 mps 748 mmHg 40%
    12:00 +25°C° 0 mm 4 mps 748 mmHg 34%
    13:00 +25°C° 0 mm 4 mps 748 mmHg 32%
    14:00 +25°C° 0 mm 5 mps 747 mmHg 30%
    15:00 +25°C° 0 mm 5 mps 747 mmHg 28%
    16:00 +23°C° 0 mm 4 mps 747 mmHg 32%
    17:00 +21°C° 0 mm 4 mps 748 mmHg 36%
    18:00 +19°C° 0 mm 3 mps 748 mmHg 40%
    19:00 +18°C° 0 mm 4 mps 748 mmHg 44%
    20:00 +18°C° 0 mm 4 mps 748 mmHg 47%
    21:00 +17°C° 0 mm 4 mps 748 mmHg 50%
    22:00 +17°C° 0 mm 4 mps 748 mmHg 54%
    23:00 +15°C° 0 mm 4 mps 748 mmHg 57%

    17 October, Thursday

    Time Temperature Precipitation Wind Pressure Humidity
    00:00 +15°C° 0 mm 4 mps 748 mmHg 61%
    01:00 +14°C° 0 mm 4 mps 748 mmHg 65%
    02:00 +14°C° 0 mm 4 mps 748 mmHg 69%
    03:00 +13°C° 0 mm 4 mps 748 mmHg 74%
    04:00 +13°C° 0 mm 4 mps 748 mmHg 79%
    05:00 +13°C° 0 mm 4 mps 748 mmHg 84%
    06:00 +12°C° 0 mm 4 mps 748 mmHg 89%
    07:00 +14°C° 0 mm 5 mps 748 mmHg 82%
    08:00 +15°C° 0 mm 6 mps 748 mmHg 75%
    09:00 +16°C° 0 mm 7 mps 748 mmHg 67%
    10:00 +18°C° 0 mm 7 mps 748 mmHg 60%
    11:00 +20°C° 0 mm 7 mps 748 mmHg 53%
    12:00 +22°C° 0 mm 7 mps 748 mmHg 45%
    13:00 +22°C° 0 mm 7 mps 748 mmHg 44%
    14:00 +22°C° 0 mm 7 mps 747 mmHg 42%
    15:00 +22°C° 0 mm 7 mps 747 mmHg 41%
    16:00 +21°C° 0 mm 6 mps 747 mmHg 45%
    17:00 +20°C° 0 mm 5 mps 747 mmHg 50%
    18:00 +17°C° 0 mm 5 mps 747 mmHg 55%
    19:00 +16°C° 0 mm 5 mps 747 mmHg 58%
    20:00 +16°C° 0 mm 5 mps 747 mmHg 62%
    21:00 +15°C° 0 mm 5 mps 747 mmHg 65%
    22:00 +14°C° 0 mm 4 mps 746 mmHg 69%
    23:00 +14°C° 0 mm 4 mps 746 mmHg 73%

    18 October, Friday

    Time Temperature Precipitation Wind Pressure Humidity
    00:00 +13°C° 0 mm 4 mps 746 mmHg 77%
    01:00 +13°C° 0 mm 3 mps 746 mmHg 79%
    02:00 +12°C° 0 mm 3 mps 746 mmHg 81%
    03:00 +12°C° 0 mm 3 mps 746 mmHg 84%
    04:00 +12°C° 0 mm 3 mps 746 mmHg 85%
    05:00 +11°C° 0 mm 3 mps 746 mmHg 85%
    06:00 +12°C° 0 mm 2 mps 746 mmHg 86%
    07:00 +14°C° 0 mm 2 mps 745 mmHg 78%
    08:00 +16°C° 0 mm 2 mps 745 mmHg 70%
    09:00 +17°C° 0 mm 2 mps 745 mmHg 62%
    10:00 +20°C° 0 mm 1 mps 745 mmHg 54%
    11:00 +22°C° 0 mm 1 mps 745 mmHg 47%
    12:00 +24°C° 0 mm 1 mps 745 mmHg 39%
    13:00 +25°C° 0 mm 1 mps 745 mmHg 37%
    14:00 +25°C° 0 mm 1 mps 745 mmHg 36%
    15:00 +26°C° 0 mm 2 mps 745 mmHg 35%
    16:00 +24°C° 0 mm 1 mps 745 mmHg 40%
    17:00 +22°C° 0 mm 1 mps 745 mmHg 46%
    18:00 +20°C° 0 mm 1 mps 745 mmHg 52%
    19:00 +20°C° 0 mm 1 mps 746 mmHg 54%
    20:00 +19°C° 0 mm 1 mps 746 mmHg 57%
    21:00 +18°C° 0 mm 1 mps 746 mmHg 60%
    22:00 +17°C° 0 mm 2 mps 746 mmHg 61%
    23:00 +16°C° 0 mm 2 mps 746 mmHg 63%

    19 October, Saturday

    Time Temperature Precipitation Wind Pressure Humidity
    00:00 +16°C° 0 mm 2 mps 746 mmHg 65%
    01:00 +15°C° 0 mm 2 mps 746 mmHg 65%
    02:00 +15°C° 0 mm 2 mps 746 mmHg 65%
    03:00 +14°C° 0 mm 3 mps 747 mmHg 65%
    04:00 +14°C° 0 mm 3 mps 747 mmHg 64%
    05:00 +13°C° 0 mm 3 mps 747 mmHg 63%
    06:00 +13°C° 0 mm 3 mps 748 mmHg 62%
    07:00 +14°C° 0 mm 4 mps 748 mmHg 60%
    08:00 +15°C° 0 mm 4 mps 748 mmHg 57%
    09:00 +16°C° 0 mm 5 mps 748 mmHg 55%
    10:00 +17°C° 0 mm 5 mps 748 mmHg 52%
    11:00 +19°C° 0 mm 6 mps 748 mmHg 48%
    12:00 +20°C° 0 mm 6 mps 749 mmHg 44%
    13:00 +20°C° 0 mm 6 mps 748 mmHg 43%
    14:00 +20°C° 0 mm 6 mps 748 mmHg 42%
    15:00 +20°C° 0 mm 6 mps 748 mmHg 41%
    16:00 +19°C° 0 mm 6 mps 748 mmHg 44%
    17:00 +17°C° 0 mm 5 mps 748 mmHg 47%
    18:00 +16°C° 0 mm 5 mps 749 mmHg 50%
    19:00 +15°C° 0 mm 5 mps 749 mmHg 53%
    20:00 +14°C° 0 mm 6 mps 749 mmHg 56%
    21:00 +14°C° 0 mm 6 mps 749 mmHg 59%
    22:00 +13°C° 0 mm 6 mps 749 mmHg 66%
    23:00 +11°C° 0 mm 6 mps 749 mmHg 72%
    Show more